Location: Newark
(32.9533°N, 113.4900°W)
Time: 16:24:12
(UTC+00:00)

Envisat - Pass Details

Date: 25 October 2019
Orbit: 764 x 766 km, 98.1° (Epoch: 14 November)

Event Time Altitude Azimuth Distance (km) Brightness Sun altitude
Rises 13:12:34 0° 35° (NE) 3,232 6.6 -7.7°
Reaches altitude 10° 13:15:54 10° 58° (ENE) 2,301 6.3 -7.0°
Maximum altitude 13:18:46 15° 93° (E) 1,967 6.7 -6.4°
Drops below altitude 10° 13:21:37 10° 128° (SE) 2,293 6.6 -5.8°
Sets 13:24:54 0° 151° (SSE) 3,214 6.9 -5.1°
